Simultaneous Nadir Overpasses (SNOs) Predictions

Prediction of SNOs between FY3D and AQUA Satellite Orbit:

Table of predicted SNOs for the next 14.0 days since TLE Epoch: 1/24/2025
Index Date (FY3D) Time (FY3D) Lat,Lon (FY3D) SZA (FY3D ) Date (AQUA) Time (AQUA) Lat,Lon (AQUA) SZA (AQUA ) Distance(km) Time Diff (sec)
1 01/24/2025 23:26:00 -79.96, -10.92 80.41 01/24/2025 23:27:14 -80.02, -10.81 80.38 7.14 74
2 01/25/2025 00:16:28 79.46, 161.34 98.83 01/25/2025 00:16:18 79.47, 161.29 98.84 1.09 10
3 01/27/2025 09:48:20 80.82, 0.17 100.80 01/27/2025 09:49:33 81.10, 0.91 100.94 33.89 73
4 01/27/2025 10:38:06 -79.42,-173.65 81.85 01/27/2025 10:37:56 -79.43,-173.77 81.84 2.37 10
5 01/29/2025 20:09:09 -79.69, 41.24 82.10 01/29/2025 20:10:22 -79.69, 41.28 82.12 0.83 73
6 01/29/2025 20:59:46 79.45,-149.23 97.54 01/29/2025 20:59:35 79.45,-149.26 97.55 0.71 11
7 02/01/2025 06:30:47 79.66, 66.12 97.19 02/01/2025 06:31:58 79.67, 66.09 97.18 0.76 71
8 02/01/2025 07:21:24 -79.42,-124.31 83.18 02/01/2025 07:21:10 -79.42,-124.42 83.17 2.44 14
9 02/03/2025 16:52:26 -79.67, 90.73 83.51 02/03/2025 16:53:32 -79.67, 90.76 83.53 0.65 66
10 02/03/2025 17:43:03 79.43, -99.80 96.14 02/03/2025 17:42:45 79.44, -99.86 96.15 1.15 18
11 02/06/2025 03:14:03 79.64, 115.69 95.71 02/06/2025 03:15:04 79.64, 115.62 95.70 1.41 61



Historial Predications of SNOs between FY3D and AQUA
